Location: Los Gatos B&B
(42.6926°N, 77.0646°W)
Time: 16:30:31
(UTC-04:00)

SL-16 R/B - Visible Passes

Search period start: 23 May 2018 00:00
Search period end: 02 June 2018 00:00
Orbit: 842 x 848 km, 71.0° (Epoch: 22 May)

Date Brightness Start Highest point End Pass type
(mag) Time Alt. Az. Time Alt. Az. Time Alt. Az.
23 May 3.7 00:19:50 10° N 00:24:43 29° NE 00:26:59 22° E visible
23 May 2.6 02:03:38 10° NW 02:08:50 46° W 02:08:50 46° W visible
24 May 3.7 00:05:47 10° N 00:10:37 28° NE 00:12:54 21° E visible
24 May 2.6 01:49:31 10° NW 01:54:46 48° W 01:54:46 48° W visible
24 May 3.7 23:51:44 10° N 23:56:30 27° NE 23:58:52 21° E visible
25 May 2.5 01:35:25 10° NW 01:40:44 49° WSW 01:40:44 49° WSW visible
25 May 3.8 23:37:41 10° N 23:42:24 26° NE 23:44:52 20° E visible
26 May 2.5 01:21:19 10° NW 01:26:44 51° WSW 01:26:44 51° WSW visible
26 May 3.8 23:23:37 10° N 23:28:18 25° NE 23:30:55 18° E visible
27 May 2.4 01:07:13 10° NNW 01:12:44 53° WSW 01:12:47 53° WSW visible
27 May 3.8 23:09:34 10° N 23:14:11 25° NE 23:16:59 17° E visible
28 May 2.4 00:53:07 10° NNW 00:58:39 55° WSW 00:58:51 55° WSW visible
28 May 3.8 22:55:30 10° N 23:00:04 24° NE 23:03:06 16° E visible
29 May 2.3 00:39:00 10° NNW 00:44:34 57° WSW 00:44:57 56° SW visible
29 May 3.8 22:41:27 10° N 22:45:57 23° NE 22:49:14 15° E visible
30 May 2.3 00:24:54 10° NNW 00:30:29 59° WSW 00:31:06 56° SW visible
30 May 3.9 22:27:24 10° N 22:31:50 23° NE 22:35:23 13° E visible
31 May 2.3 00:10:49 10° NNW 00:16:24 61° WSW 00:17:16 54° SSW visible
31 May 3.9 22:13:21 10° N 22:17:44 22° NE 22:21:35 12° E visible
31 May 2.3 23:56:42 10° NNW 00:02:20 64° WSW 00:03:27 52° SSW visible
01 Jun 3.9 21:59:18 10° N 22:03:37 22° NE 22:07:49 10° E visible
01 Jun 2.3 23:42:36 10° NNW 23:48:14 66° WSW 23:49:41 48° S visible
